Regional Weather Roundup
Issued by NWS

Home | Current Version | Previous Version | Graphics & Text | Print | Product List | Glossary On
Versions: 1 2 3 4 5 6 7 8 9 10 11 12 13 14 15 16 17 18 19 20 21 22 23 24 25 26 27
000
ASUS45 KBOU 260707
RWRCO

WEATHER ROUNDUP FOR COLORADO
NATIONAL WEATHER SERVICE DENVER/BOULDER CO
100 AM MDT MON JUN 26 2017

NOTE: "FAIR" INDICATES FEW OR NO CLOUDS BELOW 12000 FEET WITH NO
SIGNIFICANT WEATHER AND/OR OBSTRUCTIONS TO VISIBILITY.

COZ001>005-013-030-031-260800-
...NORTHWEST COLORADO...

CITY           SKY/WX    TMP DP  RH WIND       PRES   REMARKS
CRAIG          FAIR      48  38  68 CALM      30.31R
HAYDEN         FAIR      52  28  40 E9        30.33S
MEEKER         FAIR      51  33  50 NE6       30.31R
RABBIT EARS PA FAIR      46  30  53 E7        30.59S
STEAMBOAT SPGS FAIR      52  33  49 CALM      30.36R
WALDEN         FAIR      41  32  70 SE8       30.46S
$$

COZ006>008-011-260800-
...WEST CENTRAL VALLEYS...

CITY           SKY/WX    TMP DP  RH WIND       PRES   REMARKS
GRAND JUNCTION FAIR      78  27  15 VRB5      30.13R
MONTROSE       FAIR      63  32  31 SE8       30.23R
EAGLE          FAIR      56  31  38 E6        30.36R
RIFLE          FAIR      65  31  28 E7        30.23R
DELTA          FAIR      74  29  18 CALM      30.18R
NUCLA          FAIR      64  27  24 E13       30.25S
$$

COZ017>023-064>068-260800-
...SOUTHWEST COLORADO...

CITY           SKY/WX    TMP DP  RH WIND       PRES   REMARKS
DURANGO        FAIR      58  40  51 E7        30.28R
CORTEZ         FAIR      54  32  43 NE8       30.20S
PAGOSA SPRINGS FAIR      56  37  48 CALM      30.39S
TELLURIDE      FAIR      55  26  33 SE8       30.48S
WOLF CREEK PAS FAIR      46  34  61 W7        30.73S
$$

COZ009-010-012-014-032>034-037-058>063-260800-
...CENTRAL COLORADO...

CITY           SKY/WX    TMP DP  RH WIND       PRES   REMARKS
ASPEN          FAIR      50  32  50 S8        30.40R
BUENA VISTA    FAIR      58  50  74 CALM      30.45F
COPPER MTN     FAIR      52  23  32 NW6       30.70S
BERTHOUD PASS  FAIR      37  27  65 NW10      30.72S
COTTONWOOD PAS FAIR      54  50  87 N6        30.57F
GUNNISON       FAIR      54  35  48 CALM      30.39R
KREMMLING      NOT AVBL
LEADVILLE      FAIR      44  32  62 CALM      30.55S
MONARCH PASS   FOG       45  43  93 NE21      30.77F VSB<1/4
SALIDA         MOCLDY    62  54  76 E5        30.49F
SUNLIGHT       FAIR      50  23  34 CALM      30.63F
WILKERSON PASS FOG       45  43  93 S3        30.69S VSB 1/2
$$

COZ069>075-260800-
...SAN LUIS VALLEY/SANGRE DE CRISTO MOUNTAINS...

CITY           SKY/WX    TMP DP  RH WIND       PRES   REMARKS
ALAMOSA        FAIR      57  48  72 SE16      30.36F
DEL NORTE      FAIR      56  45  67 CALM      30.43R
LA VETA PASS   FOG       46  45  93 N17       30.68F VSB 1/4
SAGUACHE       FAIR      55  45  67 E6        30.41S
$$

COZ035-036-038>040-260800-
...NORTHERN COLORADO FRONT RANGE...

CITY           SKY/WX    TMP DP  RH WIND       PRES   REMARKS
DENVER INTL AP FAIR      60  54  80 S13       30.32F
DMNS CITY PARK   N/A     60  53  76 E7        30.32F
AURORA         PTCLDY    58  56  92 SE13      30.34F
FRONT RANGE AP MOCLDY    63  55  77 S12       30.34F
ERIE MUNI ARPT FAIR      60  53  78 CALM      30.32F
BOULDER MUN AP FAIR      61  54  77 CALM      30.32F
CENTENNIAL     MOCLDY    59  55  87 S6        30.35F
BROOMFIELD     FAIR      59  54  82 CALM      30.35F
FORT COLLINS   NOT AVBL
LONGMONT       FAIR      57  52  81 NW5       30.33F
$$

COZ041-046-047-076>085-087-088-260800-
...PIKES PEAK/PALMER DIVIDE AND SOUTHERN FOOTHILLS...

CITY           SKY/WX    TMP DP  RH WIND       PRES   REMARKS
COLO. SPRINGS  CLOUDY    59  58  96 SE3       30.40S
A. F. ACADEMY  CLOUDY    58  57  99 CALM      30.40F
SCHRIEVER AFB  CLOUDY    58  56  94 E3        30.39F
CHEYENNE MTN     N/A     56  55  96 SE6       30.37S
ELLICOTT       CLOUDY   N/A N/A N/A E9        30.37F
FALCON           N/A     57  55  95 SE5       30.44S
FORT CARSON    CLOUDY    61  57  88 E3        30.36F
LIMON          FAIR      54  53  97 SE3       30.36F
MONUMENT HILL  CLOUDY    54  52  94 S8        30.44S
CANON CITY     CLOUDY    64  61  88 NE8       30.34F
WALSENBURG     CLOUDY    63  61  94 NE6       30.36S
TRINIDAD       MOCLDY    61  57  87 NW8       30.33R
$$

COZ042>045-048>051-090-091-260800-
...NORTHEAST COLORADO...

CITY           SKY/WX    TMP DP  RH WIND       PRES   REMARKS
GREELEY ARPT   FAIR      57  53  86 SE3       30.30F
AKRON          FAIR      56  52  86 S8        30.30F
BURLINGTON     FAIR      55  54  96 S6        30.31S
WRAY           FAIR     N/A N/A N/A S6        30.28F
YUMA           FAIR      50  50 100 S5        30.28F
STERLING       FAIR      54  52  94 SW6       30.26F
HOLYOKE        NOT AVBL
FORT MORGAN    FAIR      55  52  90 SW5       30.29F
$$

COZ086-089-092>099-260800-
...SOUTHEAST COLORADO...

CITY           SKY/WX    TMP DP  RH WIND       PRES   REMARKS
PUEBLO         CLOUDY    64  60  87 E14       30.30F
LA JUNTA       CLOUDY    64  58  80 E12       30.29S
LAMAR          CLOUDY    62  54  74 E8        30.28S
SPRINGFIELD      N/A     59  58  96 E7        30.31R
$$




USA.gov is the U.S. government's official web portal to all federal, state and local government web resources and services.